TimeCST,TemperatureF,Dew PointF,Humidity,Sea Level PressureIn,VisibilityMPH,Wind Direction,Wind SpeedMPH,Gust SpeedMPH,PrecipitationIn,Events,Conditions,WindDirDegrees,DateUTC
12:53 AM,50.0,37.9,63,30.42,10.0,North,23.0,28.8,N/A,,Clear,360,2013-01-18 06:53:00
1:53 AM,48.0,37.9,68,30.43,10.0,North,23.0,29.9,N/A,,Clear,10,2013-01-18 07:53:00
2:53 AM,46.9,37.9,71,30.45,10.0,NNE,23.0,27.6,N/A,,Clear,30,2013-01-18 08:53:00
3:53 AM,46.0,37.0,71,30.45,10.0,NNE,20.7,-,N/A,,Clear,20,2013-01-18 09:53:00
4:53 AM,45.0,37.0,74,30.45,10.0,North,16.1,-,N/A,,Clear,10,2013-01-18 10:53:00
5:53 AM,44.1,36.0,73,30.45,10.0,NNE,17.3,-,N/A,,Clear,20,2013-01-18 11:53:00
6:53 AM,43.0,36.0,76,30.48,9.0,NNE,16.1,-,N/A,,Clear,30,2013-01-18 12:53:00
7:53 AM,44.1,35.1,71,30.50,9.0,NE,16.1,-,N/A,,Clear,50,2013-01-18 13:53:00
8:53 AM,45.0,35.1,68,30.52,10.0,NE,13.8,-,N/A,,Clear,40,2013-01-18 14:53:00
9:53 AM,48.0,34.0,58,30.52,10.0,NE,11.5,-,N/A,,Clear,50,2013-01-18 15:53:00
10:53 AM,50.0,34.0,54,30.51,10.0,ENE,8.1,-,N/A,,Clear,70,2013-01-18 16:53:00
11:53 AM,52.0,36.0,54,30.48,10.0,NNE,6.9,-,N/A,,Clear,30,2013-01-18 17:53:00
12:53 PM,54.0,37.0,53,30.44,10.0,NNE,6.9,-,N/A,,Clear,20,2013-01-18 18:53:00
1:53 PM,55.0,37.9,53,30.42,10.0,North,3.5,-,N/A,,Clear,10,2013-01-18 19:53:00
2:53 PM,55.9,37.9,51,30.41,10.0,ESE,9.2,-,N/A,,Clear,110,2013-01-18 20:53:00
3:53 PM,55.0,37.0,51,30.41,10.0,ESE,6.9,-,N/A,,Clear,120,2013-01-18 21:53:00
4:53 PM,55.0,37.9,53,30.41,10.0,SE,5.8,-,N/A,,Clear,140,2013-01-18 22:53:00
5:53 PM,52.0,37.9,59,30.41,10.0,SE,3.5,-,N/A,,Clear,130,2013-01-18 23:53:00
6:53 PM,51.1,39.0,63,30.41,10.0,SE,3.5,-,N/A,,Clear,140,2013-01-19 00:53:00
7:53 PM,48.9,37.9,66,30.41,10.0,SSE,4.6,-,N/A,,Clear,160,2013-01-19 01:53:00
8:53 PM,50.0,37.9,63,30.40,10.0,SSE,3.5,-,N/A,,Clear,160,2013-01-19 02:53:00
9:53 PM,48.9,37.9,66,30.41,10.0,Calm,Calm,-,N/A,,Clear,0,2013-01-19 03:53:00
10:53 PM,48.0,39.0,71,30.40,10.0,Calm,Calm,-,N/A,,Clear,0,2013-01-19 04:53:00
11:53 PM,48.9,39.0,69,30.38,10.0,Calm,Calm,-,N/A,,Clear,0,2013-01-19 05:53:00